Weather History for South Lake Tahoe, CA

Change the Weather History Date:

Tuesday, November 6, 2012

  Actual Average Record
Temperature  
Mean Temperature 46 °F 39 °F  
Max Temperature 66 °F 54 °F 69 °F (1988)
Min Temperature 26 °F 24 °F 14 °F (2003)
Degree Days  
Heating Degree Days 19 26  
Month to date heating degree days 130 149  
Since 1 July heating degree days 1108 1381  
Cooling Degree Days 0 0  
Month to date cooling degree days 0 0  
Year to date cooling degree days 30 31  
Moisture  
Dew Point 30 °F    
Average Humidity 59    
Maximum Humidity 92    
Minimum Humidity 26    
Precipitation  
Precipitation 0.00 in - 1.87 in (1963)
Month to date precipitation 0.13  
Year to date precipitation 12.01  
Sea Level Pressure  
Sea Level Pressure 30.28 in    
Wind  
Wind Speed 2 mph (SSE)    
Max Wind Speed 8 mph    
Max Gust Speed 10 mph    
Visibility 10 miles    
Events      
T = Trace of Precipitation, MM = Missing Value Source: NWS Daily Summary

Daily Weather History Graph

Daily Weather History Graph

Search for Another Location

Airport:

Trip Planner

Search our weather history database for the weather conditions in past years. The results will help you decide how hot, cold, wet, or windy it might be!

Date:

Astronomy

Nov. 06, 2012 Rise Set
Actual Time 6:33 AM PST 4:53 PM PST
Civil Twilight 6:05 AM PST 5:21 PM PST
Nautical Twilight 5:33 AM PST 5:53 PM PST
Astronomical Twilight 5:02 AM PST 6:24 PM PST
Moon 11:37 PM PST (11/6) 12:28 PM PST (11/6)
Length of Visible Light 11h 16m
Length of Day
10h 20m
Waning Gibbous, 52% of the Moon is Illuminated
Nov 6
Waning Gibbous
Nov 6
Last Quarter
Nov 13
New
Nov 20
First Quarter
Nov 28
Full

Hourly Weather History & Observations

Time (PST) Temp. Windchill Dew Point Humidity Pressure Visibility Wind Dir Wind Speed Gust Speed Precip Events Conditions
12:53 AM 28.9 °F - 26.1 °F 89% 30.30 in 9.0 mi Calm Calm - 0.00 in   Clear
1:53 AM 28.0 °F - 25.0 °F 88% 30.31 in 7.0 mi Calm Calm - N/A   Clear
2:53 AM 28.0 °F 24.2 °F 25.0 °F 88% 30.30 in 9.0 mi South 3.5 mph - N/A   Clear
3:53 AM 27.0 °F 23.0 °F 25.0 °F 92% 30.32 in 9.0 mi South 3.5 mph - N/A   Clear
4:53 AM 28.0 °F - 25.0 °F 88% 30.35 in 10.0 mi Calm Calm - N/A   Clear
5:53 AM 27.0 °F 23.0 °F 24.1 °F 89% 30.36 in 10.0 mi South 3.5 mph - N/A   Clear
6:53 AM 27.0 °F 23.0 °F 24.1 °F 89% 30.39 in 10.0 mi South 3.5 mph - N/A   Clear
7:53 AM 30.0 °F 26.5 °F 27.0 °F 88% 30.39 in 10.0 mi South 3.5 mph - N/A   Clear
8:53 AM 41.0 °F - 34.0 °F 76% 30.36 in 10.0 mi Calm Calm - N/A   Clear
9:53 AM 53.1 °F - 33.1 °F 47% 30.32 in 10.0 mi Calm Calm - N/A   Clear
10:53 AM 59.0 °F - 37.9 °F 46% 30.29 in 10.0 mi NE 4.6 mph - N/A   Clear
11:53 AM 61.0 °F - 37.9 °F 42% 30.25 in 10.0 mi NNE 6.9 mph - N/A   Clear
12:53 PM 64.0 °F - 37.9 °F 38% 30.22 in 10.0 mi Variable 3.5 mph - N/A   Clear
1:53 PM 64.0 °F - 36.0 °F 35% 30.21 in 10.0 mi NNE 5.8 mph - N/A   Clear
2:53 PM 66.0 °F - 30.9 °F 27% 30.20 in 10.0 mi NNE 5.8 mph - N/A   Clear
3:53 PM 55.9 °F - 35.1 °F 45% 30.23 in 10.0 mi Calm Calm - N/A   Clear
4:53 PM 50.0 °F - 34.0 °F 54% 30.25 in 10.0 mi Calm Calm - N/A   Clear
5:53 PM 45.0 °F - 34.0 °F 65% 30.27 in 10.0 mi Calm Calm - N/A   Clear
6:53 PM 41.0 °F - 33.1 °F 73% 30.29 in 10.0 mi Calm Calm - N/A   Clear
7:53 PM 39.0 °F - 32.0 °F 76% 30.28 in 10.0 mi Calm Calm - N/A   Clear
8:53 PM 37.0 °F - 30.0 °F 76% 30.27 in 10.0 mi Calm Calm - N/A   Clear
9:53 PM 34.0 °F 29.8 °F 28.0 °F 79% 30.24 in 10.0 mi South 4.6 mph - N/A   Clear
10:53 PM 34.0 °F - 28.0 °F 79% 30.22 in 10.0 mi Calm Calm - N/A   Clear
11:53 PM 32.0 °F 28.7 °F 26.1 °F 79% 30.21 in 10.0 mi SSW 3.5 mph - N/A   Clear